Location: Gleizolles
(44.4833°N, 6.7667°E)
Time: 03:53:39
(UTC+00:00)

Vanguard 1 Rocket - Pass Details

Date: 02 July 2024
Orbit: 650 x 4219 km, 34.3° (Epoch: 15 July)

Event Time Altitude Azimuth Distance (km) Brightness Sun altitude
Rises 05:47:54 0° 279° (W) 6,830 11.3 17.7°
Reaches altitude 10° 05:52:59 10° 268° (W) 6,273 11.1 18.6°
Maximum altitude 06:09:21 28° 220° (SW) 5,803 11.2 21.5°
Drops below altitude 10° 06:28:41 10° 172° (S) 7,290 12.1 24.9°
Sets 06:35:32 0° 162° (SSE) 8,056 12.4 26.1°
